User: anonymous   Login
Location: Unspecified
(0.0000°N, 0.0000°E)
Time: 03:00:35
(UTC+00:00)
Language:

STARLINK-35921 - Orbit

View from above orbital plane
View from above orbital plane
View from above satellite
View from above satellite

Ground track
Ground track

The orbit is defined by the following mean orbital elements,

1 66640U          26145.25610286 +.00000000 +00000-0 +49394-3 0 00005
2 66640  53.1607 143.9794 0001053  75.9009 284.2109 15.30210606    02
Epoch (UTC): 25 May 2026 06:08:47
Eccentricity: 0.0001053
inclination: 53.1607°
perigee height: 474 km
apogee height: 476 km
right ascension of ascending node: 143.9794°
argument of perigee: 75.9009°
revolutions per day: 15.30210606
mean anomaly at epoch: 284.2109°

The dashed part of the orbit path shows where the satellite is in the earth's shadow,  

DLR